When you browse on this site, cookies collect data to enhance your experience and personalize the content and advertising you see.
Visit our Privacy Policy to learn more. By continuing to use the site, you agree to this use of cookies and data.
  • în România
  • Lista ţărilor
  • Pe 7 zile
  • Temperatura apei
  • Hartă satelitară
  • Meteo pe hartă
  • Widget-uri
  • user-avatar
    Intrare

    Meteo pe oră la Sazoninki

    Astăzi, 23 Martie, Sâmbătă

    Timp Temperatura Precipitaţii Vânt Presiune Umiditate
    00:00 -2°C° 0 mm 5 m/s 747 mmHg 78%
    01:00 -2°C° 0 mm 5 m/s 748 mmHg 79%
    02:00 -2°C° 0 mm 5 m/s 748 mmHg 80%
    03:00 -2°C° 0 mm 5 m/s 748 mmHg 82%
    04:00 -2°C° 0 mm 4 m/s 749 mmHg 83%
    05:00 -3°C° 0 mm 4 m/s 749 mmHg 85%
    06:00 -2°C° 0 mm 4 m/s 750 mmHg 83%
    07:00 -2°C° 0 mm 4 m/s 750 mmHg 82%
    08:00 -1°C° 0 mm 3 m/s 750 mmHg 81%
    09:00 +1°C° 0 mm 3 m/s 750 mmHg 78%
    10:00 +3°C° 0 mm 2 m/s 750 mmHg 74%
    11:00 +4°C° 0 mm 2 m/s 750 mmHg 71%
    12:00 +5°C° 0 mm 1 m/s 750 mmHg 68%
    13:00 +6°C° 0 mm 1 m/s 750 mmHg 66%
    14:00 +7°C° 0 mm 1 m/s 750 mmHg 63%
    15:00 +6°C° 0 mm 1 m/s 749 mmHg 65%
    16:00 +6°C° 0 mm 1 m/s 749 mmHg 67%
    17:00 +6°C° 0 mm 1 m/s 749 mmHg 69%
    18:00 +4°C° 0 mm 2 m/s 748 mmHg 73%
    19:00 +3°C° 0 mm 2 m/s 748 mmHg 77%
    20:00 +2°C° 0 mm 2 m/s 748 mmHg 81%
    21:00 +1°C° 0 mm 3 m/s 747 mmHg 78%
    22:00 +1°C° 0 mm 3 m/s 746 mmHg 76%
    23:00 +1°C° 0 mm 3 m/s 745 mmHg 74%

    Mâine, 24 Martie, Duminică

    Timp Temperatura Precipitaţii Vânt Presiune Umiditate
    00:00 +1°C° 0.7 mm 3 m/s 745 mmHg 73%
    01:00 +1°C° 0.7 mm 3 m/s 744 mmHg 73%
    02:00 +1°C° 0.7 mm 3 m/s 744 mmHg 73%
    03:00 +1°C° 0.2 mm 3 m/s 743 mmHg 79%
    04:00 0°C° 0.2 mm 3 m/s 743 mmHg 85%
    05:00 +1°C° 0.2 mm 2 m/s 743 mmHg 91%
    06:00 +1°C° 0 mm 3 m/s 743 mmHg 89%
    07:00 +1°C° 0 mm 3 m/s 743 mmHg 86%
    08:00 +1°C° 0 mm 4 m/s 743 mmHg 83%
    09:00 +3°C° 0 mm 4 m/s 743 mmHg 75%
    10:00 +4°C° 0 mm 4 m/s 743 mmHg 66%
    11:00 +5°C° 0 mm 5 m/s 743 mmHg 57%
    12:00 +5°C° 0 mm 5 m/s 743 mmHg 54%
    13:00 +5°C° 0 mm 5 m/s 743 mmHg 52%
    14:00 +5°C° 0 mm 5 m/s 742 mmHg 49%
    15:00 +5°C° 0 mm 4 m/s 742 mmHg 52%
    16:00 +4°C° 0 mm 3 m/s 742 mmHg 54%
    17:00 +4°C° 0 mm 3 m/s 742 mmHg 57%
    18:00 +3°C° 0 mm 2 m/s 742 mmHg 62%
    19:00 +2°C° 0 mm 2 m/s 742 mmHg 66%
    20:00 +1°C° 0 mm 2 m/s 742 mmHg 71%
    21:00 +1°C° 0 mm 2 m/s 742 mmHg 72%
    22:00 -1°C° 0 mm 2 m/s 742 mmHg 74%
    23:00 -1°C° 0 mm 2 m/s 741 mmHg 75%

    Poimâine, 25 Martie, Luni

    Timp Temperatura Precipitaţii Vânt Presiune Umiditate
    00:00 -2°C° 0 mm 2 m/s 741 mmHg 76%
    01:00 -2°C° 0 mm 2 m/s 741 mmHg 77%
    02:00 -2°C° 0 mm 2 m/s 741 mmHg 77%
    03:00 -2°C° 0 mm 2 m/s 741 mmHg 78%
    04:00 -2°C° 0 mm 2 m/s 740 mmHg 79%
    05:00 -3°C° 0 mm 2 m/s 740 mmHg 79%
    06:00 -2°C° 0 mm 2 m/s 740 mmHg 76%
    07:00 -1°C° 0 mm 2 m/s 740 mmHg 72%
    08:00 +1°C° 0 mm 2 m/s 740 mmHg 69%
    09:00 +3°C° 0 mm 2 m/s 740 mmHg 62%
    10:00 +3°C° 0 mm 3 m/s 739 mmHg 56%
    11:00 +4°C° 0 mm 3 m/s 739 mmHg 49%
    12:00 +5°C° 0 mm 3 m/s 739 mmHg 49%
    13:00 +5°C° 0 mm 3 m/s 739 mmHg 48%
    14:00 +5°C° 0 mm 3 m/s 739 mmHg 48%
    15:00 +5°C° 0.1 mm 2 m/s 739 mmHg 53%
    16:00 +5°C° 0.1 mm 2 m/s 738 mmHg 58%
    17:00 +5°C° 0.1 mm 1 m/s 738 mmHg 64%
    18:00 +4°C° 0 mm 1 m/s 738 mmHg 68%
    19:00 +2°C° 0 mm 1 m/s 738 mmHg 73%
    20:00 -1°C° 0 mm 2 m/s 739 mmHg 78%
    21:00 +1°C° 0 mm 1 m/s 739 mmHg 79%
    22:00 0°C° 0 mm 1 m/s 739 mmHg 80%
    23:00 0°C° 0 mm 1 m/s 739 mmHg 81%

    26 Martie, Marţi

    Timp Temperatura Precipitaţii Vânt Presiune Umiditate
    00:00 0°C° 0 mm 1 m/s 739 mmHg 83%
    01:00 0°C° 0 mm 1 m/s 739 mmHg 86%
    02:00 0°C° 0 mm 1 m/s 739 mmHg 89%
    03:00 0°C° 0 mm 1 m/s 739 mmHg 91%
    04:00 0°C° 0 mm 1 m/s 739 mmHg 93%
    05:00 0°C° 0 mm 1 m/s 739 mmHg 95%
    06:00 -2°C° 0 mm 2 m/s 739 mmHg 91%
    07:00 -1°C° 0 mm 2 m/s 739 mmHg 88%
    08:00 +1°C° 0 mm 2 m/s 740 mmHg 84%
    09:00 0°C° 0.3 mm 3 m/s 740 mmHg 82%
    10:00 -1°C° 0.3 mm 4 m/s 740 mmHg 80%
    11:00 -1°C° 0.3 mm 4 m/s 740 mmHg 77%
    12:00 0°C° 0.1 mm 4 m/s 740 mmHg 70%
    13:00 0°C° 0.1 mm 4 m/s 740 mmHg 62%
    14:00 +1°C° 0.1 mm 4 m/s 740 mmHg 54%
    15:00 +1°C° 0.1 mm 4 m/s 740 mmHg 54%
    16:00 +1°C° 0.1 mm 3 m/s 740 mmHg 54%
    17:00 +1°C° 0.1 mm 3 m/s 740 mmHg 55%
    18:00 0°C° 0.2 mm 3 m/s 740 mmHg 66%
    19:00 -1°C° 0.2 mm 3 m/s 740 mmHg 77%
    20:00 -2°C° 0.2 mm 3 m/s 740 mmHg 88%
    21:00 -4°C° 0.2 mm 3 m/s 740 mmHg 80%
    22:00 -4°C° 0.2 mm 4 m/s 740 mmHg 73%
    23:00 -5°C° 0.2 mm 4 m/s 740 mmHg 66%

    27 Martie, Miercuri

    Timp Temperatura Precipitaţii Vânt Presiune Umiditate
    00:00 -5°C° 0 mm 4 m/s 741 mmHg 72%
    01:00 -5°C° 0 mm 4 m/s 741 mmHg 78%
    02:00 -5°C° 0 mm 4 m/s 742 mmHg 84%
    03:00 -5°C° 0 mm 3 m/s 743 mmHg 86%
    04:00 -5°C° 0 mm 3 m/s 743 mmHg 88%
    05:00 -4°C° 0 mm 2 m/s 744 mmHg 91%
    06:00 -4°C° 0 mm 3 m/s 744 mmHg 88%
    07:00 -4°C° 0 mm 3 m/s 745 mmHg 84%
    08:00 -2°C° 0 mm 3 m/s 746 mmHg 81%
    09:00 -1°C° 0 mm 3 m/s 746 mmHg 74%
    10:00 0°C° 0 mm 3 m/s 746 mmHg 67%
    11:00 +1°C° 0 mm 3 m/s 747 mmHg 60%
    12:00 0°C° 0.1 mm 4 m/s 747 mmHg 59%
    13:00 0°C° 0.1 mm 4 m/s 747 mmHg 58%
    14:00 0°C° 0.1 mm 4 m/s 747 mmHg 57%
    15:00 0°C° 0 mm 4 m/s 748 mmHg 58%
    16:00 +1°C° 0 mm 3 m/s 748 mmHg 59%
    17:00 0°C° 0 mm 3 m/s 748 mmHg 60%
    18:00 -1°C° 0 mm 3 m/s 749 mmHg 66%
    19:00 -2°C° 0 mm 2 m/s 749 mmHg 72%
    20:00 -4°C° 0 mm 2 m/s 750 mmHg 78%
    21:00 -4°C° 0 mm 2 m/s 750 mmHg 80%
    22:00 -4°C° 0 mm 2 m/s 751 mmHg 81%
    23:00 -3°C° 0 mm 1 m/s 751 mmHg 83%

    28 Martie, Joi

    Timp Temperatura Precipitaţii Vânt Presiune Umiditate
    00:00 -3°C° 0 mm 1 m/s 752 mmHg 83%
    01:00 -3°C° 0 mm 1 m/s 752 mmHg 83%
    02:00 -3°C° 0 mm 1 m/s 753 mmHg 84%
    03:00 -3°C° 0 mm 1 m/s 753 mmHg 82%
    04:00 -3°C° 0 mm 1 m/s 753 mmHg 81%
    05:00 -4°C° 0 mm 1 m/s 754 mmHg 80%
    06:00 -3°C° 0 mm 1 m/s 754 mmHg 70%
    07:00 -4°C° 0 mm 2 m/s 755 mmHg 61%
    08:00 -3°C° 0 mm 2 m/s 755 mmHg 52%
    09:00 -2°C° 0 mm 2 m/s 755 mmHg 47%
    10:00 +1°C° 0 mm 2 m/s 756 mmHg 43%
    11:00 +2°C° 0 mm 2 m/s 756 mmHg 38%
    12:00 +3°C° 0 mm 2 m/s 756 mmHg 38%
    13:00 +3°C° 0 mm 2 m/s 756 mmHg 38%
    14:00 +4°C° 0 mm 2 m/s 755 mmHg 39%
    15:00 +4°C° 0 mm 2 m/s 755 mmHg 44%
    16:00 +4°C° 0 mm 2 m/s 755 mmHg 50%
    17:00 +4°C° 0 mm 1 m/s 755 mmHg 55%
    18:00 +2°C° 0 mm 2 m/s 755 mmHg 62%
    19:00 +1°C° 0 mm 2 m/s 755 mmHg 69%
    20:00 -1°C° 0 mm 2 m/s 755 mmHg 76%
    21:00 -1°C° 0 mm 2 m/s 755 mmHg 81%
    22:00 -1°C° 0 mm 2 m/s 755 mmHg 86%
    23:00 -1°C° 0 mm 2 m/s 754 mmHg 90%
    Arată mai mult